Location: Ferques
(50.8300°N, 1.7599°E)
Time: 20:30:59
(UTC+00:00)

USA 245 - Pass Details

Date: 19 May 2025
Orbit: 292 x 1030 km, 97.9° (Epoch: 02 June)

Event Time Altitude Azimuth Distance (km) Brightness Sun altitude
Exits shadow 20:37:31 - 155° (SSE) 2,130 5.7 -7.6°
Reaches altitude 10° 20:37:51 10° 154° (SSE) 1,998 5.6 -7.7°
Maximum altitude 20:42:14 70° 71° (ENE) 781 4.0 -8.1°
Drops below altitude 10° 20:47:43 10° 350° (N) 2,487 7.6 -8.7°
Sets 20:50:21 0° 348° (NNW) 3,531 8.6 -9.0°
